Location: Unspecified
(51.0950°N, 12.9690°E)
Time: 22:50:05
(UTC+00:00)

ESTCUBE 1 - Visible Passes

Search period start: 23 April 2024 00:00
Search period end: 03 May 2024 00:00
Orbit: 635 x 649 km, 97.8° (Epoch: 23 April)

Date Brightness Start Highest point End Pass type
(mag) Time Alt. Az. Time Alt. Az. Time Alt. Az.
23 Apr ? 18:53:03 10° E 18:55:26 15° NE 18:57:50 10° NNE visible
23 Apr ? 20:29:19 32° SSE 20:31:22 90° ENE 20:35:49 10° NNW visible
23 Apr ? 22:06:56 10° WSW 22:08:36 12° W 22:10:24 10° WNW visible
24 Apr ? 19:15:54 10° ESE 19:19:10 22° ENE 19:22:34 10° N visible
24 Apr ? 20:53:30 30° SSW 20:55:25 54° W 20:59:47 10° NNW visible
25 Apr ? 19:40:04 16° ESE 19:42:59 33° ENE 19:46:57 10° N visible
25 Apr ? 21:17:41 23° SW 21:19:32 32° W 21:23:33 10° NNW visible
26 Apr ? 20:04:14 22° SE 20:06:51 54° ENE 20:11:11 10° N visible
26 Apr ? 21:41:51 16° WSW 21:43:45 20° W 21:47:02 10° NW visible
27 Apr ? 20:28:24 27° SSE 20:30:47 89° ENE 20:35:14 10° NNW visible
27 Apr ? 22:06:11 10° WSW 22:08:01 12° W 22:09:51 10° WNW visible
28 Apr ? 19:15:12 10° ESE 19:18:34 22° ENE 19:21:57 10° N visible
28 Apr ? 20:52:33 26° SSW 20:54:48 55° W 20:59:10 10° NNW visible
29 Apr ? 19:39:05 14° SE 19:42:19 33° ENE 19:46:18 10° N visible
29 Apr ? 21:16:42 21° SW 21:18:52 33° W 21:22:54 10° NNW visible
30 Apr ? 20:03:13 19° SE 20:06:09 54° ENE 20:10:29 10° N visible
30 Apr ? 21:40:49 15° SW 21:43:01 20° W 21:46:21 10° NW visible
01 May ? 20:27:20 23° SSE 20:30:02 88° E 20:34:30 10° NNW visible
01 May ? 22:05:23 10° WSW 22:07:16 12° W 22:09:10 10° WNW visible
02 May ? 19:14:26 10° ESE 19:17:47 22° ENE 19:21:09 10° N visible
02 May ? 20:51:27 23° S 20:54:01 55° W 20:58:23 10° NNW visible
